[[{"header":{"parameterUnit":"m.s-1","parameterCategory":1,"la1":30.2991,"la2":30.254,"lo1":-89.0895,"lo2":-89.0444,"dy":0.0017,"dx":0.0017,"nx":28,"ny":28,"refTime":"2024-08-11T09:00:00:Z","depth":0,"parameterNumber":2,"parameterNumberName":"U-component_of_WINDS"},"data":[0,0,0,0,0,0,0,0,0,0,0,0,0,0,0,0,0,0,0,0,0,0,0,0,0,0,0,0,0,0,0,0,0,0,0,0,0,0,0,0,0,0,0,0,0,0,0,0,0,0,0,0,0,0,0,0,0,0,0.459,0.4591,0,0.4665,0.4666,0.4667,0.4754,0.4755,0.4756,0.4758,0.4835,0.4836,0.4837,0,0,0,0,0,0,0,0,0,0,0,0,0,0.4522,0.4522,0.459,0.4591,0.4592,0.4665,0.4666,0.4667,0.4754,0.4755,0.4757,0.4758,0.4835,0.4836,0.4837,0,0,0,0,0,0,0,0,0,0,0,0,0,0.4569,0.4523,0.459,0.4644,0.4649,0.4665,0.4666,0.4668,0.4753,0.4755,0.4757,0.4759,0.4834,0.4836,0.4837,0.4806,0,0,0.4841,0.4841,0,0,0,0,0,0,0,0,0.4567,0.4572,0.4635,0.464,0.4646,0.4702,0.4671,0.4714,0.4753,0.4714,0.4758,0.476,0.4789,0.4794,0.4804,0.4809,0.4813,0.4841,0.4842,0.4842,0.4843,0,0,0,0,0,0,0,0.4563,0.4569,0.462,0.4636,0.4643,0.4664,0.4673,0.4679,0.474,0.4717,0.4724,0.4732,0.4793,0.4803,0.4807,0.4814,0.4841,0.4842,0.4843,0.4843,0.4798,0.4796,0,0,0,0,0,0,0.4552,0.4566,0.4618,0.4622,0.4611,0.4664,0.4674,0.4682,0.474,0.4751,0.473,0.4735,0.48,0.4805,0.481,0.4777,0.4842,0.4843,0.4844,0.48,0.4797,0.4795,0,0,0,0,0,0,0.455,0.4556,0.4615,0.4596,0.4605,0.4663,0.4672,0.4683,0.4693,0.4749,0.4761,0.4729,0.4801,0.4808,0.4806,0.4781,0.4844,0.4845,0.4802,0.4799,0.4796,0.4711,0,0,0,0,0,0,0.4548,0.4554,0.4543,0.4595,0.4606,0.4609,0.467,0.4683,0.4695,0.4703,0.4751,0.4761,0.4803,0.4804,0.4807,0.4784,0.4846,0.4804,0.4801,0.4797,0.4716,0.4705,0.4696,0,0,0,0,0,0.4545,0.4516,0.4542,0.4548,0.4592,0.4607,0.4614,0.4663,0.4692,0.4681,0.4718,0.476,0.4783,0.4803,0.4808,0.4784,0.4806,0.4802,0.4797,0.4721,0.4708,0.4696,0,0,0,0,0,0,0.4459,0.4524,0.4553,0.454,0.4567,0.4622,0.461,0.4647,0.4667,0.4673,0.4734,0.4744,0.4735,0.476,0.478,0.4757,0.4801,0.4797,0.4741,0.4729,0.4719,0.4713,0.4847,0,0,0,0,0,0.4439,0.4445,0.4502,0.4485,0.4497,0.4551,0.4559,0.4594,0.4625,0.4638,0.4674,0.4702,0.4716,0.4724,0.474,0.4721,0.4732,0.4707,0.4697,0.4688,0.4684,0.4676,0.4665,0.478,0.478,0.4781,0,0,0.4397,0.4433,0.4433,0.4468,0.4494,0.4499,0.456,0.4563,0.4568,0.4638,0.4638,0.4666,0.4702,0.4691,0.4688,0.4711,0.4655,0.4683,0.4675,0.4676,0.467,0.4659,0.4649,0.4777,0.4778,0.4778,0,0,0.4323,0.4351,0.434,0.4364,0.4402,0.4438,0.4435,0.4484,0.4505,0.4506,0.4559,0.4566,0.4589,0.4612,0.4627,0.4563,0.4602,0.4566,0.4513,0.4504,0.4495,0.4487,0.4464,0.4455,0.4562,0.4562,0.4562,0,0.4265,0.4276,0.4329,0.4329,0.4343,0.4407,0.4397,0.4418,0.4459,0.4467,0.4493,0.4523,0.4552,0.4547,0.4531,0.4541,0.454,0.456,0.4492,0.4485,0.4478,0.4457,0.4448,0.4557,0.4558,0.4558,0.4559,0,0.4203,0.421,0.4197,0.4234,0.4247,0.4242,0.4294,0.4301,0.4335,0.4369,0.4369,0.4406,0.4431,0.4433,0.4466,0.4433,0.4446,0.4481,0.4526,0.4462,0.4442,0.4435,0.4551,0.4552,0.4554,0.4555,0,0,0.4077,0.4145,0.4139,0.4157,0.4204,0.421,0.4208,0.4232,0.4236,0.4262,0.4262,0.428,0.4313,0.4329,0.4367,0.4359,0.4305,0.4395,0.4397,0.4376,0.427,0.4242,0.4232,0.4331,0.433,0.4329,0.4266,0,0.401,0.401,0.4058,0.4045,0.4051,0.4113,0.4111,0.4139,0.4171,0.4181,0.4216,0.4228,0.427,0.4281,0.4276,0.4312,0.4284,0.4318,0.4331,0.4331,0.4319,0.4222,0.4193,0.4132,0.4259,0.4258,0.4257,0,0.3933,0.3955,0.3941,0.3989,0.3994,0.3991,0.4017,0.4027,0.406,0.4084,0.4102,0.4145,0.4146,0.4189,0.4192,0.4214,0.4223,0.4242,0.424,0.4243,0.4289,0.4221,0.4114,0.4104,0.4246,0.4247,0.4248,0,0.3841,0.3867,0.3863,0.3877,0.3932,0.3929,0.3952,0.3988,0.3999,0.4022,0.403,0.4053,0.4065,0.4082,0.4129,0.4156,0.4126,0.4173,0.4146,0.4144,0.4136,0.4135,0.4027,0.4142,0.4142,0.4143,0.4143,0,0.3762,0.3751,0.3822,0.3819,0.3809,0.3865,0.3854,0.3883,0.3915,0.3919,0.3974,0.3976,0.4039,0.4049,0.4086,0.4082,0.4088,0.4107,0.4116,0.4101,0.4099,0.4107,0.4112,0.414,0.4141,0.4141,0.4142,0,0.3657,0.3704,0.3703,0.3756,0.3769,0.3759,0.3805,0.3804,0.384,0.3844,0.3848,0.3903,0.3917,0.3967,0.3993,0.4018,0.4003,0.4022,0.3991,0.3997,0.3966,0.3968,0.3859,0.3848,0.397,0.3969,0.3968,0,0.3602,0.3596,0.3648,0.3654,0.3675,0.3685,0.3697,0.3752,0.3762,0.3801,0.3795,0.3814,0.3832,0.3852,0.3895,0.3915,0.3935,0.3896,0.3939,0.3923,0.3934,0.3933,0.3933,0.3886,0.3884,0.3883,0.3882,0,0.3501,0.3525,0.354,0.3563,0.3576,0.3597,0.3621,0.3623,0.3685,0.3694,0.3709,0.3723,0.375,0.3768,0.3795,0.382,0.3861,0.3868,0.3863,0.3847,0.3828,0.3837,0.3965,0.387,0.3872,0.3872,0.3873,0.3874,0.3419,0.3416,0.3452,0.3467,0.3492,0.3513,0.3515,0.355,0.3564,0.359,0.3623,0.3634,0.3669,0.371,0.3731,0.3741,0.3763,0.3755,0.3753,0.375,0.3743,0.3828,0.3746,0.3747,0.3747,0.3747,0.3748,0,0.332,0.3347,0.336,0.3392,0.3404,0.3442,0.3471,0.3478,0.3487,0.3516,0.3533,0.355,0.3568,0.3612,0.3634,0.3633,0.3653,0.3637,0.3637,0.3642,0.3722,0.3724,0.3621,0.3621,0.3621,0.3621,0.3621,0.3621,0.327,0.3266,0.3294,0.3304,0.3331,0.3342,0.3355,0.3375,0.3399,0.3416,0.3431,0.3459,0.3494,0.3519,0.3537,0.355,0.3555,0.3533,0.3551,0.3624,0.3636,0.3648,0.365,0.3534,0.3534,0.3471,0.347,0.347]},{"header":{"parameterUnit":"m.s-1","parameterCategory":1,"la1":30.2991,"la2":30.254,"lo1":-89.0895,"lo2":-89.0444,"dy":0.0017,"dx":0.0017,"nx":28,"ny":28,"refTime":"2024-08-11T09:00:00:Z","depth":0,"parameterNumber":3,"parameterNumberName":"V-component_of_WINDS"},"data":[0,0,0,0,0,0,0,0,0,0,0,0,0,0,0,0,0,0,0,0,0,0,0,0,0,0,0,0,0,0,0,0,0,0,0,0,0,0,0,0,0,0,0,0,0,0,0,0,0,0,0,0,0,0,0,0,0,0,0.2038,0.2038,0,0.2011,0.201,0.201,0.1974,0.1973,0.1973,0.1972,0.1945,0.1945,0.1944,0,0,0,0,0,0,0,0,0,0,0,0,0,0.2058,0.2058,0.2038,0.2038,0.2037,0.2011,0.201,0.201,0.1974,0.1973,0.1972,0.1972,0.1945,0.1945,0.1944,0,0,0,0,0,0,0,0,0,0,0,0,0,0.2042,0.2058,0.2038,0.2016,0.2014,0.2011,0.201,0.201,0.1974,0.1973,0.1972,0.1971,0.1945,0.1945,0.1944,0.1961,0,0,0.1944,0.1943,0,0,0,0,0,0,0,0,0.2043,0.2042,0.202,0.2018,0.2015,0.1995,0.2007,0.1993,0.1974,0.1989,0.1972,0.1971,0.1962,0.196,0.1957,0.196,0.1958,0.1944,0.1943,0.1943,0.1943,0,0,0,0,0,0,0,0.2044,0.2043,0.2027,0.2019,0.2017,0.2007,0.2004,0.2005,0.1981,0.1988,0.1985,0.1982,0.1961,0.1958,0.1956,0.1958,0.1944,0.1943,0.1943,0.1943,0.1969,0.197,0,0,0,0,0,0,0.2049,0.2044,0.2028,0.2026,0.2027,0.2008,0.2004,0.2002,0.1981,0.1977,0.1983,0.1981,0.1958,0.1957,0.1955,0.1971,0.1943,0.1943,0.1943,0.1968,0.1969,0.197,0,0,0,0,0,0,0.2049,0.2048,0.2029,0.2034,0.2031,0.2008,0.2007,0.2002,0.1999,0.1977,0.1973,0.1984,0.1958,0.1956,0.1959,0.1969,0.1943,0.1943,0.1967,0.1969,0.197,0.2003,0,0,0,0,0,0,0.205,0.2048,0.2055,0.2035,0.2031,0.2034,0.2007,0.2002,0.1998,0.1995,0.1977,0.1973,0.1957,0.1959,0.1959,0.1968,0.1943,0.1966,0.1968,0.1969,0.2001,0.2005,0.2009,0,0,0,0,0,0.2051,0.2066,0.2055,0.2053,0.2038,0.2034,0.2032,0.2012,0.2,0.2005,0.1991,0.1974,0.1969,0.196,0.1959,0.1969,0.1966,0.1968,0.1969,0.1999,0.2004,0.2009,0,0,0,0,0,0,0.2088,0.2063,0.2051,0.206,0.2049,0.2028,0.2035,0.2019,0.2013,0.201,0.1986,0.1982,0.1988,0.1979,0.197,0.1982,0.1964,0.1966,0.1987,0.1992,0.1996,0.1998,0.1942,0,0,0,0,0,0.2097,0.2096,0.2074,0.2084,0.208,0.2058,0.2056,0.2041,0.203,0.2025,0.2012,0.2001,0.1997,0.1994,0.199,0.2,0.1994,0.2006,0.201,0.2014,0.2015,0.2017,0.2021,0.1977,0.1977,0.1977,0,0,0.2117,0.2103,0.2103,0.2091,0.2082,0.208,0.2055,0.2055,0.2053,0.2026,0.2027,0.2016,0.2003,0.2009,0.2011,0.2002,0.2026,0.2016,0.2019,0.2018,0.2019,0.2024,0.2027,0.1978,0.1978,0.1977,0,0,0.215,0.214,0.2146,0.2136,0.2121,0.2107,0.2108,0.2089,0.2081,0.2082,0.206,0.2058,0.2052,0.2042,0.2037,0.2064,0.2048,0.2064,0.2084,0.2087,0.209,0.2093,0.2101,0.2104,0.2065,0.2065,0.2065,0,0.2175,0.2172,0.2151,0.2151,0.2146,0.212,0.2124,0.2117,0.2101,0.2098,0.2088,0.2077,0.2067,0.2069,0.2075,0.2073,0.2072,0.2065,0.2091,0.2094,0.2097,0.2103,0.2107,0.2067,0.2067,0.2067,0.2067,0,0.2203,0.2201,0.2207,0.2191,0.2187,0.219,0.2168,0.2166,0.2152,0.2138,0.2138,0.2125,0.2115,0.2115,0.2102,0.2115,0.2109,0.2096,0.2077,0.2103,0.2109,0.2112,0.207,0.2069,0.2069,0.2068,0,0,0.2258,0.223,0.2232,0.2223,0.2205,0.2203,0.2204,0.2194,0.2191,0.2182,0.2181,0.2175,0.2162,0.2155,0.2141,0.2143,0.2163,0.2129,0.2128,0.2134,0.2174,0.2182,0.2186,0.2153,0.2153,0.2153,0.2174,0,0.2286,0.2285,0.2266,0.2271,0.2267,0.2242,0.2243,0.2231,0.2218,0.2213,0.2199,0.2194,0.2178,0.2174,0.2175,0.216,0.217,0.2159,0.215,0.215,0.2152,0.2189,0.2199,0.2219,0.2176,0.2177,0.2177,0,0.2318,0.2308,0.2313,0.2291,0.2289,0.229,0.2278,0.2274,0.226,0.225,0.2242,0.2225,0.2224,0.2208,0.2205,0.2197,0.2193,0.2185,0.2185,0.2182,0.2164,0.2185,0.2225,0.2228,0.2181,0.2181,0.2181,0,0.2355,0.2343,0.2343,0.2337,0.2313,0.2314,0.2304,0.2289,0.2284,0.2273,0.2269,0.226,0.2254,0.2247,0.2227,0.2217,0.2225,0.2208,0.2216,0.2216,0.2217,0.2217,0.2255,0.2218,0.2218,0.2218,0.2218,0,0.2386,0.2389,0.2359,0.2359,0.2361,0.2338,0.2341,0.2329,0.2315,0.2312,0.2291,0.2288,0.2263,0.2257,0.2242,0.2241,0.2239,0.223,0.2226,0.2231,0.2232,0.2226,0.2223,0.2219,0.2219,0.2219,0.2219,0,0.2427,0.2407,0.2405,0.2382,0.2376,0.2379,0.2359,0.2357,0.2343,0.2339,0.2337,0.2314,0.2306,0.2286,0.2274,0.2263,0.2265,0.2258,0.2269,0.2266,0.2274,0.2273,0.2309,0.2311,0.2275,0.2275,0.2275,0,0.2447,0.2448,0.2425,0.2421,0.2411,0.2405,0.2399,0.2377,0.2371,0.2354,0.2354,0.2344,0.2335,0.2323,0.2306,0.2295,0.2287,0.23,0.2285,0.229,0.2284,0.2284,0.2283,0.2303,0.2303,0.2304,0.2304,0,0.2484,0.2474,0.2465,0.2453,0.2446,0.2436,0.2424,0.2422,0.2397,0.2392,0.2382,0.2375,0.2361,0.2351,0.2338,0.2327,0.2311,0.2309,0.231,0.2314,0.2319,0.2314,0.2276,0.2308,0.2308,0.2307,0.2307,0.2307,0.2513,0.2512,0.2495,0.2486,0.2475,0.2464,0.246,0.2445,0.2437,0.2423,0.2411,0.2403,0.2387,0.2367,0.2358,0.2351,0.2343,0.2345,0.2345,0.2345,0.2346,0.2322,0.2349,0.2349,0.2348,0.2348,0.2348,0,0.2547,0.2534,0.2526,0.251,0.2502,0.2488,0.2474,0.2468,0.2461,0.2448,0.2438,0.2427,0.2417,0.2398,0.2386,0.2384,0.2376,0.2382,0.2381,0.2378,0.2355,0.2355,0.2388,0.2388,0.2388,0.2388,0.2388,0.2388,0.2563,0.256,0.2547,0.2538,0.2526,0.2517,0.251,0.2499,0.2488,0.2476,0.2467,0.2455,0.2439,0.2425,0.2415,0.241,0.2406,0.2413,0.2405,0.2384,0.238,0.2376,0.2375,0.2413,0.2413,0.2428,0.2428,0.2428]}]]